Location: Alvis C Story Elementary School
(33.0968°N, 96.6364°W)
Time: 05:31:33
(UTC+00:00)

Cosmos 2228 Rocket - Pass Details

Date: 01 July 2022
Orbit: 618 x 651 km, 82.5° (Epoch: 12 August)

Event Time Altitude Azimuth Distance (km) Brightness Sun altitude
Rises 09:45:01 0° 6° (N) 2,911 7.3 -17.2°
Reaches altitude 10° 09:47:30 10° 18° (NNE) 2,005 6.6 -16.8°
Maximum altitude 09:51:22 29° 79° (ENE) 1,165 5.1 -16.2°
Drops below altitude 10° 09:55:14 10° 139° (SE) 2,012 5.7 -15.6°
Sets 09:57:43 0° 151° (SSE) 2,922 6.4 -15.2°
